sat.trackr.live / text

‹ back to catalog

STARLINK-32646

NORAD 62307 · 2024-239G

PAYLOAD ACTIVE UNKNOWN

§ Identity

Operator
Country
US
Launch date
2024-12-13
Launch site
AFWTR
Launch vehicle
Mass (kg)
RCS (m²)

Purposes: comms

External: N2YO · Heavens-Above · Gunter

§ Orbital elements

Epoch: 2026-05-24T19:45:35.611776Z

Period
94.11 min
Inclination
53.1581°
Eccentricity
0.0001203
Mean motion
15.30182378 rev/d
Perigee alt
474.4 km
Apogee alt
476.1 km
Semi-major
6,853.4 km
B*
4.1894e-4
RAAN
187.2709°
Arg perigee
85.1214°
Mean anomaly
274.9924°
Rev number
8,122

§ Raw data

STARLINK-326461 62307U 24239G   26144.82332884  .00012062  00000+0  41894-3 0  99922 62307  53.1581 187.2709 0001203  85.1214 274.9924 15.30182378 81222

JSON: /api/v1/satellites/62307 · /tle

For live sub-satellite position, see the globe view (requires WebGL).

§ Visibility from observer

Set your observer location to see the next 7 days of passes ≥ 10°. The values pass through the URL so the page stays shareable.

No JS? Fill the form by hand. The geolocation button needs JavaScript.